Location: Nians�bougou
(13.2321°N, 4.9818°W)
Time: 18:35:13
(UTC+00:00)

Atlas Centaur 2 - Pass Details

Date: 18 February 2020
Orbit: 459 x 1310 km, 30.4° (Epoch: 03 April)

Event Time Altitude Azimuth Distance (km) Brightness Sun altitude
Exits shadow 04:43:01 56° 229° (SW) 1,475 3.1 -29.4°
Maximum altitude 04:45:05 83° 150° (SSE) 1,293 3.0 -28.8°
Drops below altitude 10° 04:53:41 10° 63° (ENE) 3,309 5.9 -26.8°
Sets 04:56:37 0° 62° (ENE) 4,248 6.7 -26.1°
